Location: Newark
(35.9031°N, 139.7175°E)
Time: 05:09:50
(UTC+00:00)

Courier 1B - Visible Passes

Search period start: 06 June 2020 00:00
Search period end: 16 June 2020 00:00
Orbit: 963 x 1209 km, 28.3° (Epoch: 05 June)

Date Brightness Start Highest point End Pass type
(mag) Time Alt. Az. Time Alt. Az. Time Alt. Az.
06 Jun 8.5 11:00:58 10° SW 11:06:44 29° SSE 11:11:22 15° ESE visible
06 Jun 8.4 12:53:36 10° WSW 12:58:18 37° SW 12:58:18 37° SW visible
06 Jun 9.8 16:53:27 12° SSE 16:53:27 12° SSE 16:54:00 10° SSE visible
07 Jun 8.0 12:00:07 10° WSW 12:06:33 42° S 12:08:15 37° SE visible
07 Jun 9.4 13:53:32 10° WSW 13:55:10 18° WSW 13:55:10 18° WSW visible
08 Jun 8.2 11:06:43 10° SW 11:12:52 38° SSE 11:18:01 16° ESE visible
08 Jun 8.2 12:59:53 10° WSW 13:04:55 40° SW 13:04:55 40° SW visible
09 Jun 7.9 12:06:18 10° WSW 12:12:48 46° S 12:14:31 39° SE visible
09 Jun 9.5 14:00:01 10° WSW 14:01:25 16° WSW 14:01:25 16° WSW visible
10 Jun 8.0 11:12:47 10° WSW 11:19:05 44° S 11:24:01 18° ESE visible
10 Jun 8.4 13:06:18 10° WSW 13:10:54 36° SW 13:10:54 36° SW visible
11 Jun 8.1 10:19:19 10° WSW 10:25:25 40° S 10:31:49 10° ESE visible
11 Jun 8.0 12:12:39 10° WSW 12:19:03 45° S 12:20:19 41° SSE visible
11 Jun 9.7 14:06:42 10° WSW 14:07:12 12° WSW 14:07:12 12° WSW visible
12 Jun 8.0 11:19:03 10° WSW 11:25:21 45° S 11:29:42 21° ESE visible
12 Jun 8.8 13:12:52 10° WSW 13:16:35 27° SW 13:16:35 27° SW visible
13 Jun 8.0 10:25:30 10° WSW 10:31:40 44° S 10:38:10 10° ESE visible
13 Jun 8.1 12:19:07 10° WSW 12:25:17 38° S 12:25:55 38° S visible
14 Jun 8.1 11:25:28 10° WSW 11:31:37 41° S 11:35:14 24° SE visible
14 Jun 9.3 13:19:43 10° WSW 13:22:07 19° SW 13:22:07 19° SW visible
15 Jun 8.1 10:31:50 10° WSW 10:37:58 43° S 10:44:22 10° ESE visible
15 Jun 8.5 12:25:49 10° WSW 12:31:26 29° SSW 12:31:26 29° SSW visible
